Location: Marcé
(47.5801°N, 0.3280°W)
Time: 03:51:27
(UTC+01:00)

Vanguard 1 Rocket - Pass Details

Date: 09 December 2021
Orbit: 651 x 4225 km, 34.3° (Epoch: 26 January)

Event Time Altitude Azimuth Distance (km) Brightness Sun altitude
Exits shadow 03:49:01 43° 151° (SSE) 3,025 9.8 -47.3°
Drops below altitude 10° 04:03:56 10° 105° (ESE) 6,435 12.2 -44.9°
Sets 04:10:15 0° 100° (E) 7,909 12.8 -43.9°
